Weather History for New Bern, NC

Change the Weather History Date:

Wednesday, January 9, 2013

  Actual Average Record
Temperature  
Mean Temperature 56 °F 44 °F  
Max Temperature 73 °F 54 °F 75 °F (1965)
Min Temperature 38 °F 34 °F 12 °F (1970)
Degree Days  
Heating Degree Days 9 21  
Month to date heating degree days 173 189  
Since 1 July heating degree days 1115 1183  
Cooling Degree Days 0 0  
Month to date cooling degree days 0 0  
Year to date cooling degree days 0 0  
Growing Degree Days 6 (Base 50)    
Moisture  
Dew Point 44 °F    
Average Humidity 75    
Maximum Humidity 100    
Minimum Humidity 49    
Precipitation  
Precipitation T in 0.13 in 1.13 in (1964)
Month to date precipitation 0.53 1.16  
Year to date precipitation 0.53 1.16  
Snow  
Snow 0.00 in - - ()
Month to date snowfall 0.0  
Since 1 July snowfall 0.0  
Snow Depth 0.00 in    
Sea Level Pressure  
Sea Level Pressure 30.39 in    
Wind  
Wind Speed 0 mph (SSE)    
Max Wind Speed 5 mph    
Max Gust Speed 6 mph    
Visibility 5 miles    
Events Fog    
T = Trace of Precipitation, MM = Missing Value Source: NWS Daily Summary

Daily Weather History Graph

Daily Weather History Graph

Search for Another Location

Airport:

Trip Planner

Search our weather history database for the weather conditions in past years. The results will help you decide how hot, cold, wet, or windy it might be!

Date:

Astronomy

Jan. 09, 2013 Rise Set
Actual Time 7:16 AM EST 5:14 PM EST
Civil Twilight 6:49 AM EST 5:42 PM EST
Nautical Twilight 6:17 AM EST 6:13 PM EST
Astronomical Twilight 5:47 AM EST 6:44 PM EST
Moon 4:53 AM EST (1/9) 3:13 PM EST (1/9)
Length of Visible Light 10h 53m
Length of Day
9h 57m
Waning Crescent, 6% of the Moon is Illuminated
Jan 9
Waning Crescent
Jan 11
New
Jan 18
First Quarter
Jan 26
Full
Feb 3
Last Quarter

Hourly Weather History & Observations

Time (EST) Temp. Dew Point Humidity Pressure Visibility Wind Dir Wind Speed Gust Speed Precip Events Conditions
12:03 AM 41.0 °F 39.2 °F 93% 30.40 in 0.5 mi Calm Calm - N/A Fog Fog
12:34 AM 42.8 °F 39.2 °F 87% 30.40 in 0.5 mi Calm Calm - N/A Fog Fog
12:39 AM 42.8 °F 41.0 °F 93% 30.40 in 1.0 mi Calm Calm - N/A   Clear
12:48 AM 41.0 °F 39.2 °F 93% 30.39 in 3.0 mi Calm Calm - N/A   Clear
12:54 AM 42.8 °F 39.2 °F 87% 30.39 in 1.5 mi Calm Calm - N/A   Clear
1:00 AM 41.0 °F 39.2 °F 93% 30.40 in 0.5 mi Calm Calm - N/A Fog Fog
1:31 AM 42.8 °F 39.2 °F 87% 30.39 in 1.0 mi Calm Calm - N/A   Clear
1:35 AM 42.8 °F 39.2 °F 87% 30.38 in 4.0 mi Calm Calm - N/A   Clear
1:43 AM 41.0 °F 39.2 °F 93% 30.38 in 1.0 mi Calm Calm - N/A   Mist
1:47 AM 41.0 °F 39.2 °F 93% 30.38 in 0.5 mi Calm Calm - N/A Fog Fog
1:54 AM 41.0 °F 39.0 °F 93% 30.38 in 0.5 mi Calm Calm - N/A Fog Fog
2:32 AM 41.0 °F 39.2 °F 93% 30.38 in 0.5 mi Calm Calm - N/A Fog Fog
2:40 AM 41.0 °F 39.2 °F 93% 30.38 in 1.0 mi Calm Calm - N/A   Mist
2:43 AM 41.0 °F 39.2 °F 93% 30.38 in 2.5 mi Calm Calm - N/A   Partly Cloudy
2:50 AM 39.2 °F 39.2 °F 100% 30.38 in 8.0 mi Calm Calm - N/A   Partly Cloudy
2:54 AM 39.9 °F 39.0 °F 97% 30.38 in 8.0 mi Calm Calm - N/A   Clear
3:28 AM 39.2 °F 39.2 °F 100% 30.38 in 1.5 mi Calm Calm - N/A   Clear
3:38 AM 39.2 °F 37.4 °F 93% 30.39 in 0.5 mi Calm Calm - N/A Fog Fog
3:46 AM 39.2 °F 37.4 °F 93% 30.39 in 0.8 mi Calm Calm - N/A   Clear
3:52 AM 41.0 °F 39.2 °F 93% 30.39 in 2.0 mi Calm Calm - N/A   Clear
3:53 AM 41.0 °F 39.0 °F 93% 30.39 in 2.5 mi Calm Calm - N/A   Clear
4:04 AM 39.2 °F 39.2 °F 100% 30.40 in 1.2 mi Calm Calm - N/A   Clear
4:10 AM 39.2 °F 39.2 °F 100% 30.40 in 3.0 mi Calm Calm - N/A   Clear
4:16 AM 39.2 °F 37.4 °F 93% 30.39 in 1.8 mi Calm Calm - N/A   Clear
4:33 AM 39.2 °F 39.2 °F 100% 30.39 in 3.0 mi Calm Calm - N/A   Partly Cloudy
4:54 AM 41.0 °F 39.0 °F 93% 30.39 in 10.0 mi Calm Calm - N/A   Partly Cloudy
5:54 AM 42.1 °F 41.0 °F 96% 30.39 in 10.0 mi Calm Calm - N/A   Mostly Cloudy
6:54 AM 46.0 °F 44.1 °F 93% 30.41 in 8.0 mi Calm Calm - N/A   Overcast
7:54 AM 48.0 °F 46.0 °F 93% 30.43 in 7.0 mi Calm Calm - N/A   Overcast
8:54 AM 48.9 °F 46.0 °F 90% 30.45 in 7.0 mi Calm Calm - N/A   Overcast
9:54 AM 51.1 °F 48.0 °F 89% 30.44 in 7.0 mi Calm Calm - N/A   Partly Cloudy
10:54 AM 57.9 °F 51.1 °F 78% 30.43 in 10.0 mi Calm Calm - N/A   Overcast
11:54 AM 64.9 °F 51.1 °F 61% 30.40 in 10.0 mi East 3.5 mph - N/A   Partly Cloudy
12:54 PM 69.1 °F 52.0 °F 54% 30.38 in 10.0 mi Calm Calm - N/A   Overcast
1:54 PM 71.1 °F 53.1 °F 53% 30.37 in 10.0 mi Calm Calm - N/A   Mostly Cloudy
2:54 PM 73.0 °F 54.0 °F 51% 30.37 in 10.0 mi Calm Calm - N/A   Clear
3:54 PM 68.0 °F 55.0 °F 63% 30.37 in 10.0 mi Calm Calm - N/A   Clear
4:54 PM 64.0 °F 55.0 °F 73% 30.39 in 10.0 mi Calm Calm - N/A   Clear
5:54 PM 60.1 °F 55.0 °F 83% 30.38 in 10.0 mi Calm Calm - N/A   Clear
6:54 PM 59.0 °F 55.0 °F 87% 30.40 in 10.0 mi Calm Calm - N/A   Mostly Cloudy
7:54 PM 57.0 °F 53.1 °F 87% 30.38 in 10.0 mi SSE 3.5 mph - 0.00 in   Clear
8:54 PM 55.9 °F 53.1 °F 90% 30.37 in 10.0 mi SSW 3.5 mph - N/A   Clear
9:54 PM 55.9 °F 52.0 °F 87% 30.39 in 10.0 mi Calm Calm - N/A   Clear
10:54 PM 55.0 °F 53.1 °F 93% 30.41 in 10.0 mi Calm Calm - N/A   Clear
11:38 PM 51.8 °F 48.2 °F 88% 30.41 in 1.5 mi Calm Calm - N/A   Clear
11:50 PM 50.0 °F 48.2 °F 94% 30.41 in 0.8 mi Calm Calm - N/A   Clear
11:54 PM 51.1 °F 48.9 °F 92% 30.41 in 1.5 mi Calm Calm - N/A   Clear
11:56 PM 51.8 °F 50.0 °F 94% 30.41 in 3.0 mi Calm Calm - N/A   Clear